FW2418 Weather Reports


time (UTC)temp
C
wind
direction
speed
KPH
gust
KPH
rain 1hr
cm
rain 24hr
cm
rain mn
cm
humidity
%
barometer
mb
20260508030229 25 290 1.6 3.2 0.00 0.00 0.00 74 1011.3
20260508025228 26 286 1.6 3.2 0.00 0.00 0.00 73 1011.3
20260508024228 26 289 1.6 3.2 0.00 0.00 0.00 72 1011.3
20260508023227 26 295 1.6 3.2 0.00 0.00 0.00 70 1011.0
20260508022155 26 293 1.6 3.2 0.00 0.00 0.00 69 1011.0
20260508021122 26 290 1.6 4.8 0.00 0.00 0.00 66 1010.6
20260508020121 26 296 1.6 4.8 0.00 0.00 0.00 64 1010.6
20260508015120 27 307 1.6 4.8 0.00 0.00 0.00 60 1010.6
20260508014120 27 280 1.6 3.2 0.00 0.00 0.00 57 1010.6
20260508013119 27 283 1.6 4.8 0.00 0.00 0.00 54 1010.6
20260508012015 27 285 1.6 4.8 0.00 0.00 0.00 50 1010.3
20260508011014 28 285 1.6 4.8 0.00 0.00 0.00 49 1010.3
20260508010013 28 288 1.6 1.6 0.00 0.00 0.00 48 1010.3
20260508005012 28 288 1.6 1.6 0.00 0.00 0.00 46 1010.3
20260508004011 28 285 1.6 3.2 0.00 0.00 0.00 44 1010.3
20260508003011 29 271 1.6 3.2 0.00 0.00 0.00 43 1009.9
20260508002010 29 301 1.6 3.2 0.00 0.00 0.00 42 1009.9
20260508001009 30 291 1.6 4.8 0.00 0.00 0.00 41 1009.9
20260508000008 30 284 1.6 3.2 0.00 0.00 0.00 40 1009.9
20260507235007 31 281 1.6 3.2 0.00 0.00 0.00 38 1009.9
20260507234007 31 274 1.6 4.8 0.00 0.00 0.00 36 1009.6
20260507232935 31 282 1.6 4.8 0.00 0.00 0.00 34 1009.9
20260507231934 32 269 1.6 6.4 0.00 0.00 0.00 33 1009.6
20260507230901 32 318 3.2 6.4 0.00 0.00 0.00 33 1009.6
20260507225727 32 261 1.6 6.4 0.00 0.00 0.00 32 1009.6
20260507224726 32 276 1.6 6.4 0.00 0.00 0.00 32 1009.6
20260507223726 33 292 3.2 6.4 0.00 0.00 0.00 31 1009.6
20260507222725 33 276 3.2 9.7 0.00 0.00 0.00 31 1009.6
20260507221724 33 302 3.2 11.3 0.00 0.00 0.00 31 1009.6
20260507220652 34 295 3.2 11.3 0.00 0.00 0.00 32 1009.6
20260507215651 34 278 1.6 14.5 0.00 0.00 0.00 36 1009.6
20260507214650 34 311 4.8 14.5 0.00 0.00 0.00 36 1009.6
20260507213649 34 294 4.8 9.7 0.00 0.00 0.00 37 1009.6
20260507212648 34 264 3.2 9.7 0.00 0.00 0.00 39 1009.6
20260507211647 35 245 1.6 9.7 0.00 0.00 0.00 37 1009.6
20260507210646 35 233 1.6 8.0 0.00 0.00 0.00 37 1009.6
20260507205646 35 315 3.2 8.0 0.00 0.00 0.00 36 1009.6
20260507204645 35 254 1.6 6.4 0.00 0.00 0.00 36 1009.6
20260507203643 35 271 1.6 9.7 0.00 0.00 0.00 38 1009.6
20260507202643 35 302 1.6 9.7 0.00 0.00 0.00 37 1010.0
20260507201642 35 273 3.2 9.7 0.00 0.00 0.00 35 1010.0
20260507200640 35 299 4.8 11.3 0.00 0.00 0.00 36 1010.3
20260507195639 35 305 4.8 11.3 0.00 0.00 0.00 34 1010.3
20260507194638 35 257 3.2 9.7 0.00 0.00 0.00 33 1010.3
20260507193637 36 306 3.2 9.7 0.00 0.00 0.00 33 1010.6
20260507192637 36 235 4.8 12.9 0.00 0.00 0.00 34 1010.3
20260507191636 35 253 3.2 12.9 0.00 0.00 0.00 35 1010.6
20260507190635 35 279 3.2 12.9 0.00 0.00 0.00 34 1010.6
20260507185603 35 237 3.2 16.1 0.00 0.00 0.00 36 1011.0
20260507184602 35 204 3.2 16.1 0.00 0.00 0.00 36 1011.3
20260507183601 35 152 3.2 9.7 0.00 0.00 0.00 36 1011.3
20260507182600 35 213 3.2 8.0 0.00 0.00 0.00 37 1011.7
20260507181559 34 307 3.2 12.9 0.00 0.00 0.00 38 1012.0
20260507180559 34 257 3.2 16.1 0.00 0.00 0.00 40 1012.0
20260507175557 34 183 6.4 17.7 0.00 0.00 0.00 41 1012.0
20260507174525 33 246 4.8 17.7 0.00 0.00 0.00 43 1012.3
20260507173524 33 246 4.8 12.9 0.00 0.00 0.00 43 1012.3
20260507172523 33 270 3.2 12.9 0.00 0.00 0.00 47 1012.3
20260507171522 33 283 3.2 9.7 0.00 0.00 0.00 47 1012.3
20260507170521 33 279 4.8 11.3 0.00 0.00 0.00 46 1012.3
20260507165520 33 240 3.2 8.0 0.00 0.00 0.00 47 1012.3
20260507164520 33 268 3.2 9.7 0.00 0.00 0.00 49 1012.3
20260507163519 33 164 4.8 14.5 0.00 0.00 0.00 49 1012.3
20260507162518 32 163 6.4 14.5 0.00 0.00 0.00 53 1012.3
20260507161517 32 254 1.6 12.9 0.00 0.00 0.00 54 1012.7
20260507160445 32 205 3.2 16.1 0.00 0.00 0.00 57 1012.7
20260507155444 32 210 3.2 16.1 0.00 0.00 0.00 57 1012.7
20260507154443 31 211 3.2 9.7 0.00 0.00 0.00 59 1013.0
20260507153411 31 259 1.6 11.3 0.00 0.00 0.00 59 1013.0
20260507152411 31 176 4.8 12.9 0.00 0.00 0.00 61 1013.0
20260507151338 31 172 4.8 12.9 0.00 0.00 0.00 62 1013.0
20260507150337 30 176 3.2 14.5 0.00 0.00 0.00 64 1013.0
20260507145307 30 173 3.2 14.5 0.00 0.00 0.00 65 1013.3
20260507144304 30 233 3.2 12.9 0.00 0.00 0.00 66 1013.3
20260507143303 30 182 6.4 16.1 0.00 0.00 0.00 68 1013.3
20260507142306 29 172 8.0 16.1 0.00 0.00 0.00 67 1013.3
20260507141301 28 264 1.6 11.3 0.00 0.00 0.00 70 1013.3
20260507140300 28 186 3.2 16.1 0.00 0.00 0.00 71 1013.7
20260507135259 28 164 4.8 11.3 0.00 0.00 0.00 74 1013.3
20260507134258 27 189 4.8 16.1 0.00 0.00 0.00 74 1013.3
20260507133257 27 167 4.8 16.1 0.00 0.00 0.00 75 1013.7
20260507132257 27 159 6.4 16.1 0.00 0.00 0.00 76 1013.3
20260507131256 26 170 3.2 11.3 0.00 0.00 0.00 77 1013.3
20260507130255 26 172 1.6 8.0 0.00 0.00 0.00 78 1013.3
20260507125254 25 167 3.2 8.0 0.00 0.00 0.00 82 1013.7
20260507124253 24 156 3.2 8.0 0.00 0.00 0.00 85 1013.3
20260507123252 23 171 3.2 4.8 0.00 0.00 0.00 88 1013.7
20260507122251 22 113 1.6 3.2 0.00 0.00 0.00 91 1013.7
20260507121219 21 152 0.0 3.2 0.00 0.00 0.00 94 1013.7
20260507120218 21 149 0.0 1.6 0.00 0.00 0.00 94 1013.7
20260507115217 20 121 0.0 1.6 0.00 0.00 0.00 95 1013.7
20260507114216 20 153 0.0 0.0 0.00 0.00 0.00 95 1013.3
20260507113215 19 153 0.0 0.0 0.00 0.00 0.00 95 1013.3
20260507112143 19 153 0.0 0.0 0.00 0.00 0.00 96 1013.3
20260507111142 18 153 0.0 0.0 0.00 0.00 0.00 96 1013.0
20260507110141 18 153 0.0 0.0 0.00 0.00 0.00 96 1013.0
20260507105140 18 153 0.0 0.0 0.00 0.00 0.00 96 1013.0
20260507104139 18 154 0.0 0.0 0.00 0.00 0.00 95 1013.0
20260507103138 18 153 0.0 0.0 0.00 0.00 0.00 95 1013.0
20260507102106 18 154 0.0 0.0 0.00 0.00 0.00 95 1012.6
20260507101106 18 153 0.0 0.0 0.00 0.00 0.00 95 1012.7
20260507100105 18 153 0.0 0.0 0.00 0.00 0.00 94 1012.7
20260507095104 18 154 0.0 0.0 0.00 0.00 0.00 94 1012.7
20260507094103 18 153 0.0 0.0 0.00 0.00 0.00 94 1012.7
20260507093102 18 153 0.0 0.0 0.00 0.00 0.00 94 1012.7
20260507092101 18 154 0.0 0.0 0.00 0.00 0.00 94 1012.7
20260507091100 18 154 0.0 0.0 0.00 0.00 0.00 93 1012.3
20260507090059 18 153 0.0 0.0 0.00 0.00 0.00 93 1012.3
20260507085058 18 154 0.0 0.0 0.00 0.00 0.00 93 1012.0
20260507084057 18 153 0.0 0.0 0.00 0.00 0.00 92 1012.3
20260507083056 18 154 0.0 0.0 0.00 0.00 0.00 92 1012.3
20260507082055 18 154 0.0 0.0 0.00 0.00 0.00 91 1012.3
20260507081054 18 153 0.0 0.0 0.00 0.00 0.00 91 1012.3
20260507080053 18 153 0.0 0.0 0.00 0.00 0.00 90 1012.3
20260507075052 18 153 0.0 0.0 0.00 0.00 0.00 90 1012.3
20260507074020 19 153 0.0 0.0 0.00 0.00 0.00 90 1012.3
20260507072948 19 154 0.0 0.0 0.00 0.00 0.00 88 1012.3
20260507071947 19 153 0.0 0.0 0.00 0.00 0.00 88 1012.3
20260507070946 20 153 0.0 0.0 0.00 0.00 0.00 87 1012.7
20260507065945 20 154 0.0 0.0 0.00 0.00 0.00 87 1012.7
20260507064944 20 153 0.0 0.0 0.00 0.00 0.00 84 1013.0
20260507063943 20 154 0.0 0.0 0.00 0.00 0.00 83 1013.0
20260507062942 21 154 0.0 0.0 0.00 0.00 0.00 82 1013.3
20260507061942 21 153 0.0 0.0 0.00 0.00 0.00 81 1013.3
20260507060941 21 154 0.0 0.0 0.00 0.00 0.00 80 1013.3
20260507055909 22 153 0.0 0.0 0.00 0.00 0.00 76 1013.3
20260507054908 22 154 0.0 1.6 0.00 0.00 0.00 75 1013.3
20260507053908 22 153 0.0 1.6 0.00 0.00 0.00 73 1013.7
20260507052906 23 146 0.0 6.4 0.00 0.00 0.00 72 1013.7
20260507051905 23 160 0.0 6.4 0.00 0.00 0.00 71 1013.7
20260507050904 22 204 1.6 3.2 0.00 0.00 0.00 73 1013.7
20260507045903 22 153 1.6 3.2 0.00 0.00 0.00 75 1013.7
20260507044902 22 150 0.0 1.6 0.00 0.00 0.00 76 1013.7
20260507043759 22 141 0.0 3.2 0.00 0.00 0.00 77 1013.7
20260507042758 22 144 1.6 3.2 0.00 0.00 0.00 79 1014.0
20260507041757 22 172 0.0 0.0 0.00 0.00 0.00 79 1014.0
20260507040757 22 172 0.0 0.0 0.00 0.00 0.00 79 1014.0
20260507035756 22 172 0.0 0.0 0.00 0.00 0.00 78 1014.0
20260507034755 22 172 0.0 1.6 0.00 0.00 0.00 77 1013.7
20260507033754 22 172 0.0 1.6 0.00 0.00 0.00 76 1014.0
20260507032753 23 172 0.0 0.0 0.00 0.00 0.00 76 1014.0
20260507031752 23 172 0.0 0.0 0.00 0.00 0.00 74 1014.0